Location: S�deilles
(46.7500°N, 6.9329°E)
Time: 05:36:19
(UTC+00:00)

COSMOS 2428 - Pass Details

Date: 08 March 2021
Orbit: 845 x 858 km, 70.9° (Epoch: 22 April)

Event Time Altitude Azimuth Distance (km) Brightness Sun altitude
Rises 18:16:14 0° 187° (S) 3,390 5.9 -9.0°
Reaches altitude 10° 18:18:44 10° 182° (S) 2,460 5.1 -9.5°
Maximum altitude 18:24:07 48° 109° (ESE) 1,098 2.9 -10.4°
Drops below altitude 10° 18:29:34 10° 37° (NE) 2,482 4.8 -11.3°
Sets 18:32:06 0° 32° (NNE) 3,423 5.6 -11.7°
